FW6629 Weather Reports


Display with metric or nautical units.
time (UTC)temp
F
wind
direction
speed
MPH
gust
MPH
rain 1hr
in
rain 24hr
in
rain mn
in
humidity
%
barometer
mb
20260903211614 96 122 2.0 5.0 0.00 0.00 0.00 51 1015.3
20260903211028 97 117 2.0 7.0 0.00 0.00 0.00 49 1015.5
20260903210525 97 126 3.0 7.0 0.00 0.00 0.00 49 1015.4
20260903210044 98 86 2.0 7.0 0.00 0.00 0.00 48 1015.6
20260903205525 98 11 2.0 10.0 0.00 0.00 0.00 48 1015.6
20260903205024 98 111 2.0 10.0 0.00 0.00 0.00 48 1015.6
20260903204551 98 85 2.0 7.0 0.00 0.00 0.00 47 1015.7
20260903204023 98 83 4.0 9.0 0.00 0.00 0.00 47 1015.6
20260903203526 99 27 3.0 10.0 0.00 0.00 0.00 47 1015.6
20260903203050 98 44 4.0 11.0 0.00 0.00 0.00 47 1015.6
20260903202524 99 31 4.0 11.0 0.00 0.00 0.00 47 1015.7
20260903202026 98 77 4.0 10.0 0.00 0.00 0.00 48 1015.7
20260903201547 98 96 4.0 8.0 0.00 0.00 0.00 48 1015.6
20260903201024 99 112 3.0 10.0 0.00 0.00 0.00 46 1015.6
20260903200525 99 63 3.0 10.0 0.00 0.00 0.00 48 1015.7
20260903200047 99 146 4.0 6.0 0.00 0.00 0.00 46 1015.7
20260903195526 99 86 1.0 6.0 0.00 0.00 0.00 44 1015.8
20260903195026 99 121 2.0 6.0 0.00 0.00 0.00 46 1015.9
20260903194551 99 29 1.0 6.0 0.00 0.00 0.00 45 1016.0
20260903194024 99 58 2.0 8.0 0.00 0.00 0.00 47 1015.9
20260903193523 99 73 3.0 8.0 0.00 0.00 0.00 47 1016.0
20260903193049 99 80 3.0 7.0 0.00 0.00 0.00 46 1016.0
20260903192527 98 104 2.0 10.0 0.00 0.00 0.00 45 1016.1
20260903192026 99 81 6.0 10.0 0.00 0.00 0.00 45 1016.1
20260903191545 99 106 6.0 9.0 0.00 0.00 0.00 45 1016.2
20260903191025 98 91 1.0 6.0 0.00 0.00 0.00 45 1016.1
20260903190528 99 142 1.0 8.0 0.00 0.00 0.00 45 1016.2
20260903190047 99 119 2.0 9.0 0.00 0.00 0.00 48 1016.3
20260903185525 98 87 2.0 9.0 0.00 0.00 0.00 46 1016.4
20260903185024 99 85 4.0 9.0 0.00 0.00 0.00 46 1016.4
20260903184553 98 146 1.0 8.0 0.00 0.00 0.00 46 1016.4
20260903184027 98 110 4.0 9.0 0.00 0.00 0.00 47 1016.6
20260903183528 98 119 6.0 9.0 0.00 0.00 0.00 45 1016.7
20260903183048 97 152 1.0 5.0 0.00 0.00 0.00 47 1016.7
20260903182526 97 275 1.0 5.0 0.00 0.00 0.00 48 1016.9
20260903182024 97 135 1.0 6.0 0.00 0.00 0.00 51 1017.1
20260903181547 97 15 2.0 6.0 0.00 0.00 0.00 49 1017.1
20260903181025 97 112 1.0 7.0 0.00 0.00 0.00 52 1017.2
20260903180525 97 90 4.0 7.0 0.00 0.00 0.00 51 1017.2
20260903180044 96 284 1.0 5.0 0.00 0.00 0.00 49 1017.3
20260903175528 97 90 2.0 7.0 0.00 0.00 0.00 51 1017.4
20260903175024 96 79 2.0 7.0 0.00 0.00 0.00 52 1017.4
20260903174608 96 156 2.0 5.0 0.00 0.00 0.00 48 1017.4
20260903174023 96 63 2.0 8.0 0.00 0.00 0.00 51 1017.4
20260903173525 96 65 2.0 8.0 0.00 0.00 0.00 47 1017.5
20260903173052 95 126 1.0 6.0 0.00 0.00 0.00 52 1017.6
20260903172525 95 150 1.0 4.0 0.00 0.00 0.00 53 1017.6
20260903172026 95 115 2.0 7.0 0.00 0.00 0.00 53 1017.7
20260903171547 95 97 2.0 7.0 0.00 0.00 0.00 54 1017.8
20260903171027 95 130 4.0 7.0 0.00 0.00 0.00 53 1017.9
20260903170525 94 81 1.0 3.0 0.00 0.00 0.00 58 1018.0
20260903170110 94 270 1.0 6.0 0.00 0.00 0.00 57 1018.0
20260903165525 94 325 1.0 6.0 0.00 0.00 0.00 58 1018.1
20260903165026 94 159 3.0 6.0 0.00 0.00 0.00 57 1018.1
20260903164555 93 72 0.0 2.0 0.00 0.00 0.00 60 1018.3
20260903164024 93 286 1.0 4.0 0.00 0.00 0.00 57 1018.3
20260903163527 93 322 1.0 4.0 0.00 0.00 0.00 56 1018.3
20260903163049 93 60 1.0 6.0 0.00 0.00 0.00 58 1018.4
20260903162524 93 67 1.0 6.0 0.00 0.00 0.00 57 1018.4
20260903162025 93 9 0.0 3.0 0.00 0.00 0.00 58 1018.4
20260903161549 93 96 0.0 3.0 0.00 0.00 0.00 59 1018.4
20260903161029 92 354 1.0 4.0 0.00 0.00 0.00 59 1018.4
20260903160524 92 181 1.0 4.0 0.00 0.00 0.00 60 1018.5
20260903160048 91 64 1.0 4.0 0.00 0.00 0.00 61 1018.5
20260903155525 91 83 1.0 3.0 0.00 0.00 0.00 61 1018.5
20260903155024 91 74 1.0 4.0 0.00 0.00 0.00 62 1018.6
20260903154554 90 0 1.0 5.0 0.00 0.00 0.00 62 1018.6
20260903154024 90 81 1.0 5.0 0.00 0.00 0.00 65 1018.5
20260903153525 90 346 2.0 4.0 0.00 0.00 0.00 65 1018.5
20260903153053 90 358 2.0 4.0 0.00 0.00 0.00 65 1018.4
20260903152526 90 100 1.0 3.0 0.00 0.00 0.00 67 1018.5
20260903152025 89 9 1.0 3.0 0.00 0.00 0.00 66 1018.5
20260903151551 88 88 1.0 2.0 0.00 0.00 0.00 68 1018.6
20260903151027 88 0 0.0 2.0 0.00 0.00 0.00 67 1018.6
20260903150526 88 2 1.0 2.0 0.00 0.00 0.00 68 1018.6
20260903150046 88 89 1.0 2.0 0.00 0.00 0.00 68 1018.6
20260903145530 87 115 0.0 3.0 0.00 0.00 0.00 69 1018.6
20260903145028 87 259 0.0 3.0 0.00 0.00 0.00 69 1018.6
20260903144551 86 335 1.0 3.0 0.00 0.00 0.00 70 1018.6
20260903144025 86 27 0.0 3.0 0.00 0.00 0.00 70 1018.7
20260903143525 86 152 2.0 3.0 0.00 0.00 0.00 73 1018.7
20260903143050 85 0 0.0 3.0 0.00 0.00 0.00 72 1018.8
20260903142525 85 107 0.0 3.0 0.00 0.00 0.00 75 1018.7
20260903142026 83 333 0.0 2.0 0.00 0.00 0.00 77 1018.6
20260903141549 83 0 1.0 2.0 0.00 0.00 0.00 80 1018.7
20260903141025 82 0 0.0 2.0 0.00 0.00 0.00 82 1018.7
20260903140526 81 72 0.0 2.0 0.00 0.00 0.00 82 1018.7
20260903140046 80 85 0.0 2.0 0.00 0.00 0.00 84 1018.8
20260903135524 80 0 0.0 3.0 0.00 0.00 0.00 85 1018.8
20260903135024 79 0 1.0 3.0 0.00 0.00 0.00 85 1018.7
20260903134557 79 18 1.0 3.0 0.00 0.00 0.00 86 1018.7
20260903134027 78 0 0.0 2.0 0.00 0.00 0.00 87 1018.7
20260903133526 78 26 0.0 2.0 0.00 0.00 0.00 88 1018.7
20260903133053 78 38 0.0 2.0 0.00 0.00 0.00 89 1018.6
20260903132525 77 16 0.0 2.0 0.00 0.00 0.00 90 1018.6
20260903132027 77 0 0.0 2.0 0.00 0.00 0.00 90 1018.6
20260903131555 76 73 0.0 2.0 0.00 0.00 0.00 90 1018.6
20260903131026 76 0 0.0 1.0 0.00 0.00 0.00 91 1018.7
20260903130524 76 0 0.0 2.0 0.00 0.00 0.00 91 1018.7
20260903130054 75 117 0.0 2.0 0.00 0.00 0.00 91 1018.7
20260903125524 75 0 0.0 1.0 0.00 0.00 0.00 91 1018.7
20260903125023 75 0 0.0 2.0 0.00 0.00 0.00 92 1018.8
20260903124550 74 0 0.0 2.0 0.00 0.00 0.00 92 1018.8
20260903124025 74 0 0.0 2.0 0.00 0.00 0.00 91 1018.8
20260903123524 74 117 1.0 2.0 0.00 0.00 0.00 92 1018.8
20260903123043 74 0 0.0 2.0 0.00 0.00 0.00 91 1018.8
20260903122529 74 0 0.0 2.0 0.00 0.00 0.00 92 1018.8
20260903122026 73 117 0.0 1.0 0.00 0.00 0.00 92 1018.8
20260903121547 73 117 0.0 2.0 0.00 0.00 0.00 91 1018.8
20260903121025 73 0 0.0 2.0 0.00 0.00 0.00 91 1018.7
20260903120525 73 117 0.0 2.0 0.00 0.00 0.00 92 1018.7
20260903120049 72 117 0.0 2.0 0.00 0.00 0.00 91 1018.6
20260903115526 72 117 0.0 1.0 0.00 0.00 0.00 91 1018.6
20260903115023 72 0 0.0 0.0 0.00 0.00 0.00 91 1018.6
20260903114548 72 0 0.0 2.0 0.00 0.00 0.00 91 1018.5
20260903114028 72 0 0.0 2.0 0.00 0.00 0.00 91 1018.5
20260903113525 72 0 0.0 2.0 0.00 0.00 0.00 91 1018.4
20260903113050 72 0 0.0 2.0 0.00 0.00 0.00 91 1018.1
20260903112528 72 117 0.0 2.0 0.00 0.00 0.00 91 1018.1
20260903112025 72 117 0.0 2.0 0.00 0.00 0.00 91 1018.1
20260903111618 72 117 1.0 2.0 0.00 0.00 0.00 91 1018.0
20260903111028 72 117 1.0 2.0 0.00 0.00 0.00 91 1017.9
20260903110524 72 0 0.0 2.0 0.00 0.00 0.00 91 1017.9
20260903110059 72 0 0.0 2.0 0.00 0.00 0.00 91 1017.9
20260903105528 73 140 1.0 2.0 0.00 0.00 0.00 91 1017.8
20260903105025 73 140 0.0 2.0 0.00 0.00 0.00 91 1017.7
20260903104605 73 140 1.0 2.0 0.00 0.00 0.00 91 1017.8
20260903104024 73 140 0.0 2.0 0.00 0.00 0.00 91 1017.8
20260903103525 73 0 0.0 0.0 0.00 0.00 0.00 91 1017.7
20260903103048 73 0 0.0 0.0 0.00 0.00 0.00 91 1017.7
20260903102526 73 0 0.0 0.0 0.00 0.00 0.00 91 1017.6
20260903102024 73 0 0.0 0.0 0.00 0.00 0.00 91 1017.7
20260903101553 73 0 0.0 0.0 0.00 0.00 0.00 91 1017.7
20260903101024 73 0 0.0 0.0 0.00 0.00 0.00 91 1017.7
20260903100525 73 0 0.0 1.0 0.00 0.00 0.00 91 1017.7
20260903100049 73 0 0.0 2.0 0.00 0.00 0.00 91 1017.7
20260903095524 73 140 0.0 2.0 0.00 0.00 0.00 91 1017.6
20260903095023 73 140 0.0 2.0 0.00 0.00 0.00 90 1017.7
20260903094558 73 0 0.0 2.0 0.00 0.00 0.00 90 1017.7
20260903094028 73 0 0.0 2.0 0.00 0.00 0.00 90 1017.6
20260903093532 73 140 0.0 2.0 0.00 0.00 0.00 90 1017.6
20260903093048 73 0 0.0 2.0 0.00 0.00 0.00 90 1017.7
20260903092525 73 0 0.0 0.0 0.00 0.00 0.00 90 1017.6
20260903092024 73 0 0.0 1.0 0.00 0.00 0.00 90 1017.6
20260903091551 74 0 0.0 2.0 0.00 0.00 0.00 90 1017.6
20260903091024 74 140 0.0 2.0 0.00 0.00 0.00 90 1017.5
20260903090524 74 140 0.0 2.0 0.00 0.00 0.00 90 1017.5
20260903090051 74 0 0.0 2.0 0.00 0.00 0.00 90 1017.5
20260903085525 74 140 0.0 2.0 0.00 0.00 0.00 90 1017.5
20260903085025 74 0 0.0 2.0 0.00 0.00 0.00 90 1017.6
20260903084547 74 0 0.0 2.0 0.00 0.00 0.00 90 1017.6
20260903084027 74 0 0.0 1.0 0.00 0.00 0.00 90 1017.6
20260903083526 74 0 0.0 0.0 0.00 0.00 0.00 89 1017.6
20260903083044 74 0 0.0 0.0 0.00 0.00 0.00 89 1017.6
20260903082525 74 0 0.0 1.0 0.00 0.00 0.00 89 1017.6
20260903082025 74 0 0.0 1.0 0.00 0.00 0.00 89 1017.5
20260903081548 74 0 0.0 1.0 0.00 0.00 0.00 89 1017.5
20260903081032 74 0 0.0 1.0 0.00 0.00 0.00 89 1017.5
20260903080528 74 0 0.0 1.0 0.00 0.00 0.00 89 1017.6
20260903080046 75 0 0.0 1.0 0.00 0.00 0.00 89 1017.5
20260903075526 75 0 0.0 0.0 0.00 0.00 0.00 89 1017.5
20260903075024 75 0 0.0 1.0 0.00 0.00 0.00 89 1017.5
20260903074543 75 0 0.0 1.0 0.00 0.00 0.00 89 1017.5
20260903074024 75 149 0.0 2.0 0.00 0.00 0.00 89 1017.6
20260903073528 75 160 0.0 2.0 0.00 0.00 0.00 89 1017.5
20260903073050 75 145 0.0 2.0 0.00 0.00 0.00 89 1017.4
20260903072525 75 0 0.0 2.0 0.00 0.00 0.00 89 1017.4
20260903072024 75 128 1.0 2.0 0.00 0.00 0.00 89 1017.5
20260903071547 75 116 0.0 1.0 0.00 0.00 0.00 89 1017.4
20260903071035 75 121 0.0 1.0 0.00 0.00 0.00 89 1017.3
20260903070528 75 0 0.0 1.0 0.00 0.00 0.00 89 1017.2
20260903070047 75 54 0.0 1.0 0.00 0.00 0.00 88 1017.2
20260903065528 75 0 0.0 2.0 0.00 0.00 0.00 88 1017.1
20260903065024 76 0 0.0 2.0 0.00 0.00 0.00 88 1017.3
20260903064551 76 54 0.0 2.0 0.00 0.00 0.00 88 1017.3
20260903064023 76 0 0.0 2.0 0.00 0.00 0.00 89 1017.3
20260903063525 76 0 1.0 1.0 0.00 0.00 0.00 89 1017.3
20260903063051 76 125 0.0 2.0 0.00 0.00 0.00 88 1017.4
20260903062527 76 125 0.0 2.0 0.00 0.00 0.00 88 1017.4
20260903062029 76 0 0.0 2.0 0.00 0.00 0.00 88 1017.4
20260903061559 76 0 0.0 2.0 0.00 0.00 0.00 88 1017.5
20260903061028 76 125 1.0 1.0 0.00 0.00 0.00 88 1017.4
20260903060526 76 0 0.0 1.0 0.00 0.00 0.00 88 1017.5
20260903060054 76 0 0.0 0.0 0.00 0.00 0.00 88 1017.5
20260903055528 76 0 0.0 2.0 0.00 0.00 0.00 88 1017.6
20260903055024 76 0 0.0 2.0 0.00 0.00 0.00 88 1017.6
20260903054544 77 0 0.0 2.0 0.00 0.00 0.00 88 1017.6
20260903054025 77 125 0.0 2.0 0.00 0.00 0.00 88 1017.6
20260903053525 77 112 0.0 2.0 0.00 0.00 0.00 88 1017.5
20260903053104 77 119 0.0 2.0 0.00 0.00 0.00 88 1017.6
20260903052524 77 0 0.0 2.0 0.00 0.00 0.00 88 1017.6
20260903052028 77 0 0.0 2.0 0.00 0.00 0.00 88 1017.5
20260903051551 77 0 0.0 2.0 0.00 0.00 0.00 88 1017.5
20260903051024 77 0 0.0 2.0 0.00 0.00 0.00 88 1017.5
20260903050527 77 0 0.0 2.0 0.00 0.00 0.00 88 1017.5
20260903050049 77 0 0.0 2.0 0.00 0.00 0.00 88 1017.5
20260903045525 77 0 0.0 1.0 0.00 0.00 0.00 88 1017.4
20260903045026 77 0 0.0 2.0 0.00 0.00 0.00 87 1017.5
20260903044546 77 0 0.0 2.0 0.00 0.00 0.00 88 1017.6
20260903044025 77 121 0.0 2.0 0.00 0.00 0.00 87 1017.6
20260903043526 77 121 0.0 2.0 0.00 0.00 0.00 87 1017.6
20260903043047 77 125 1.0 2.0 0.00 0.00 0.00 87 1017.6
20260903042525 78 119 0.0 2.0 0.00 0.00 0.00 87 1017.6
20260903042024 78 0 0.0 2.0 0.00 0.00 0.00 87 1017.5
20260903041549 78 119 1.0 2.0 0.00 0.00 0.00 87 1017.5
20260903041025 78 119 0.0 1.0 0.00 0.00 0.00 87 1017.5
20260903040524 78 119 0.0 1.0 0.00 0.00 0.00 87 1017.5
20260903040049 78 119 0.0 1.0 0.00 0.00 0.00 87 1017.5
20260903035529 78 0 0.0 0.0 0.00 0.00 0.00 87 1017.5
20260903035027 79 0 0.0 0.0 0.00 0.00 0.00 87 1017.6
20260903034548 79 0 0.0 0.0 0.00 0.00 0.00 87 1017.5
20260903034025 79 0 0.0 0.0 0.00 0.00 0.00 86 1017.6
20260903033524 79 0 0.0 2.0 0.00 0.00 0.00 86 1017.6
20260903033054 79 0 0.0 2.0 0.00 0.00 0.00 86 1017.6
20260903032523 79 160 0.0 2.0 0.00 0.00 0.00 86 1017.6
20260903032025 79 0 0.0 2.0 0.00 0.00 0.00 86 1017.6
20260903031551 79 0 0.0 2.0 0.00 0.00 0.00 86 1017.6
20260903031024 80 0 0.0 2.0 0.00 0.00 0.00 85 1017.7
20260903030524 80 0 0.0 2.0 0.00 0.00 0.00 86 1017.7
20260903030109 80 131 0.0 2.0 0.00 0.00 0.00 85 1017.7
20260903025529 80 0 0.0 2.0 0.00 0.00 0.00 85 1017.6
20260903025025 80 0 0.0 2.0 0.00 0.00 0.00 85 1017.6
20260903024547 80 162 0.0 2.0 0.00 0.00 0.00 85 1017.6
20260903024024 80 158 0.0 2.0 0.00 0.00 0.00 84 1017.6
20260903023525 80 58 0.0 0.0 0.00 0.00 0.00 84 1017.5
20260903023044 80 0 0.0 2.0 0.00 0.00 0.00 84 1017.5
20260903022523 80 0 0.0 2.0 0.00 0.00 0.00 84 1017.4
20260903022027 80 0 0.0 0.0 0.00 0.00 0.00 84 1017.5
20260903021551 80 0 0.0 0.0 0.00 0.00 0.00 84 1017.5
20260903021026 81 0 0.0 0.0 0.00 0.00 0.00 83 1017.5
20260903020526 81 0 0.0 0.0 0.00 0.00 0.00 83 1017.5
20260903020047 81 0 0.0 0.0 0.00 0.00 0.00 83 1017.3
20260903015525 81 0 0.0 0.0 0.00 0.00 0.00 83 1017.3
20260903015024 81 0 0.0 0.0 0.00 0.00 0.00 82 1017.2
20260903014558 81 0 0.0 0.0 0.00 0.00 0.00 82 1017.2
20260903014025 82 0 0.0 0.0 0.00 0.00 0.00 81 1017.2
20260903013526 82 0 0.0 2.0 0.00 0.00 0.00 81 1017.1
20260903013053 82 0 0.0 2.0 0.00 0.00 0.00 80 1017.1
20260903012526 82 0 0.0 1.0 0.00 0.00 0.00 79 1017.1
20260903012025 83 0 0.0 1.0 0.00 0.00 0.00 78 1017.0
20260903011605 83 0 0.0 1.0 0.00 0.00 0.00 78 1017.0
20260903011028 83 0 0.0 0.0 0.00 0.00 0.00 78 1017.0
20260903010525 83 0 0.0 0.0 0.00 0.00 0.00 77 1016.8
20260903010055 84 0 0.0 0.0 0.00 0.00 0.00 76 1016.8
20260903005525 84 0 0.0 0.0 0.00 0.00 0.00 76 1016.7
20260903005028 85 0 0.0 0.0 0.00 0.00 0.00 75 1016.6
20260903004547 85 0 0.0 0.0 0.00 0.00 0.00 74 1016.6
20260903004024 85 0 0.0 1.0 0.00 0.00 0.00 73 1016.6
20260903003522 86 0 0.0 2.0 0.00 0.00 0.00 72 1016.6
20260903003051 87 0 0.0 2.0 0.00 0.00 0.00 70 1016.5
20260903002524 87 0 0.0 0.0 0.00 0.00 0.00 70 1016.4
20260903002024 88 0 0.0 0.0 0.00 0.00 0.00 69 1016.4
20260903001549 88 0 0.0 2.0 0.00 0.00 0.00 67 1016.5
20260903001025 89 0 0.0 2.0 0.00 0.00 0.00 65 1016.5
20260903000528 90 104 0.0 1.0 0.00 0.00 0.00 62 1016.5
20260903000046 90 104 1.0 1.0 0.00 0.00 0.00 60 1016.6
20260902235526 91 104 1.0 1.0 0.00 0.00 0.00 59 1016.7
20260902235027 92 104 1.0 2.0 0.00 0.00 0.00 60 1016.7
20260902234556 92 104 1.0 2.0 0.00 0.00 0.00 55 1016.7
20260902234025 92 107 1.0 2.0 0.00 0.00 0.00 55 1016.7
20260902233526 93 106 1.0 2.0 0.00 0.00 0.00 55 1016.8
20260902233048 93 94 1.0 2.0 0.00 0.00 0.00 56 1016.7
20260902232531 94 103 1.0 2.0 0.00 0.00 0.00 55 1016.8
20260902232023 94 108 1.0 2.0 0.00 0.00 0.00 55 1016.8
20260902231606 95 106 1.0 3.0 0.00 0.00 0.00 54 1016.8
20260902231031 95 114 1.0 3.0 0.00 0.00 0.00 53 1016.8
20260902230526 95 154 2.0 3.0 0.00 0.00 0.00 51 1016.8
20260902230047 95 137 2.0 4.0 0.00 0.00 0.00 51 1016.8
20260902225525 96 102 2.0 4.0 0.00 0.00 0.00 51 1016.8
20260902225026 96 110 2.0 4.0 0.00 0.00 0.00 51 1016.8
20260902224558 96 100 2.0 4.0 0.00 0.00 0.00 50 1016.8
20260902224031 96 94 1.0 4.0 0.00 0.00 0.00 51 1016.8
20260902223524 96 101 1.0 4.0 0.00 0.00 0.00 50 1016.8
20260902223055 96 95 1.0 4.0 0.00 0.00 0.00 49 1016.8
20260902222524 96 90 2.0 5.0 0.00 0.00 0.00 50 1016.8
20260902222027 96 86 1.0 5.0 0.00 0.00 0.00 50 1016.8
20260902221601 96 117 3.0 5.0 0.00 0.00 0.00 49 1016.8
20260902221025 96 112 3.0 5.0 0.00 0.00 0.00 50 1016.9
20260902220528 95 111 2.0 4.0 0.00 0.00 0.00 51 1017.0
20260902220057 96 70 1.0 3.0 0.00 0.00 0.00 50 1017.0
20260902215524 96 97 1.0 4.0 0.00 0.00 0.00 48 1017.0
20260902215024 97 0 1.0 5.0 0.00 0.00 0.00 46 1017.1
20260902214544 98 153 3.0 5.0 0.00 0.00 0.00 47 1017.0
20260902214025 98 135 1.0 4.0 0.00 0.00 0.00 48 1017.0
20260902213523 97 124 1.0 7.0 0.00 0.00 0.00 49 1016.9
20260902213102 97 190 2.0 7.0 0.00 0.00 0.00 46 1017.0
20260902212524 98 135 4.0 6.0 0.00 0.00 0.00 45 1017.0
20260902212028 98 94 2.0 7.0 0.00 0.00 0.00 48 1017.0